Total_Precipitation_Accumulation
1.50 1.65 1.46 1.05 0.89 0.79 0.69 0.58 0.51 0.38 0.31 0.41 0.38 0.26 0.20 0.23 0.27 0.29 0.30 0.34 0.37 0.38 0.39 0.47 0.58 0.70 0.82 0.90 0.95 0.99 1.04 1.12 1.29 1.45 1.52 1.49 1.59 1.60 1.59 1.56 1.47 1.37 1.31 1.20
1.55 1.28 0.73 0.54 0.58 0.70 0.78 0.73 0.55 0.41 0.35 0.43 0.38 0.26 0.20 0.20 0.25 0.27 0.30 0.33 0.35 0.38 0.45 0.51 0.64 0.78 0.83 0.84 0.93 0.99 0.99 1.02 1.07 1.12 1.28 1.35 1.38 1.45 1.49 1.52 1.55 1.52 1.43 1.29
1.10 0.75 0.46 0.57 0.69 0.83 0.82 0.73 0.57 0.51 0.50 0.54 0.52 0.46 0.26 0.22 0.23 0.24 0.29 0.30 0.32 0.34 0.38 0.41 0.54 0.77 0.86 0.85 0.90 0.97 0.99 0.98 1.05 1.13 1.30 1.41 1.53 1.55 1.50 1.44 1.45 1.49 1.46 1.37
0.76 0.50 0.55 0.70 0.72 0.76 0.83 0.55 0.52 0.56 0.78 0.96 0.77 0.83 0.38 0.25 0.25 0.24 0.28 0.31 0.30 0.33 0.35 0.37 0.45 0.67 0.85 0.84 0.93 1.03 1.09 1.11 1.11 1.17 1.27 1.23 1.21 1.28 1.23 1.24 1.25 1.35 1.46 1.42
0.84 0.57 0.65 0.75 0.60 0.58 0.62 0.50 0.60 0.70 0.90 1.07 0.80 0.83 0.45 0.25 0.29 0.29 0.30 0.33 0.32 0.34 0.35 0.33 0.38 0.58 0.79 0.87 0.94 1.09 1.13 1.20 1.23 1.19 1.23 1.22 1.13 1.10 1.18 1.30 1.35 1.32 1.36 1.44
0.67 0.55 0.64 0.58 0.47 0.51 0.59 0.77 1.02 1.13 1.50 1.66 0.76 0.66 0.52 0.36 0.37 0.34 0.32 0.35 0.37 0.37 0.38 0.37 0.40 0.55 0.70 0.80 0.93 1.02 1.15 1.21 1.31 1.26 1.23 1.19 1.10 1.04 1.09 1.17 1.33 1.40 1.39 1.41
0.96 0.73 0.69 0.60 0.74 0.84 0.99 1.48 2.30 2.60 2.58 1.57 0.44 0.44 0.52 0.38 0.34 0.36 0.34 0.33 0.36 0.39 0.42 0.40 0.39 0.48 0.59 0.70 0.84 0.95 1.04 1.21 1.29 1.29 1.23 1.17 1.10 1.03 1.02 1.05 1.13 1.22 1.30 1.35
1.11 0.98 0.73 0.71 0.90 1.13 1.09 1.23 1.64 1.77 1.36 0.66 0.34 0.40 0.41 0.31 0.27 0.27 0.27 0.28 0.27 0.33 0.43 0.43 0.37 0.41 0.50 0.61 0.74 0.87 0.96 1.13 1.26 1.26 1.25 1.21 1.14 1.06 1.01 1.02 1.03 1.09 1.07 1.12
1.10 0.87 0.57 0.54 0.55 0.72 1.00 1.00 0.82 1.04 0.77 0.51 0.45 0.36 0.30 0.23 0.19 0.20 0.25 0.30 0.30 0.31 0.37 0.41 0.37 0.41 0.48 0.58 0.67 0.79 0.91 1.05 1.19 1.27 1.31 1.26 1.19 1.14 1.05 1.03 1.03 1.09 1.06 0.99
1.22 1.01 0.61 0.59 0.68 0.80 0.88 0.94 1.09 1.45 1.21 0.71 0.41 0.30 0.34 0.29 0.23 0.21 0.26 0.32 0.32 0.28 0.33 0.35 0.34 0.39 0.48 0.57 0.63 0.72 0.86 0.96 1.08 1.19 1.27 1.30 1.28 1.25 1.18 1.13 1.06 1.02 1.06 1.06
1.15 1.20 0.89 0.85 1.04 1.04 0.95 1.18 1.42 1.41 1.07 0.86 0.56 0.42 0.39 0.31 0.23 0.22 0.23 0.29 0.30 0.28 0.33 0.34 0.33 0.38 0.46 0.57 0.61 0.65 0.76 0.91 1.04 1.12 1.17 1.25 1.32 1.26 1.24 1.23 1.16 1.07 1.02 1.08
1.17 1.38 1.12 0.85 0.73 0.68 0.83 1.01 1.17 1.40 1.09 0.66 0.62 0.49 0.33 0.24 0.20 0.19 0.20 0.26 0.30 0.30 0.32 0.31 0.33 0.38 0.43 0.51 0.58 0.63 0.70 0.79 0.95 1.08 1.15 1.20 1.28 1.32 1.27 1.28 1.26 1.14 1.06 1.05
1.50 1.75 1.61 1.37 1.17 0.98 1.04 0.94 0.95 1.02 1.03 0.78 0.68 0.49 0.29 0.22 0.18 0.17 0.18 0.21 0.27 0.29 0.32 0.30 0.32 0.38 0.43 0.48 0.54 0.58 0.65 0.71 0.82 1.00 1.08 1.17 1.23 1.28 1.29 1.28 1.32 1.29 1.24 1.25
1.73 1.82 1.36 1.28 1.16 1.07 1.03 0.82 0.78 1.03 1.24 0.83 0.55 0.43 0.32 0.28 0.24 0.22 0.20 0.21 0.25 0.31 0.33 0.31 0.32 0.36 0.44 0.49 0.52 0.53 0.56 0.67 0.76 0.94 1.08 1.12 1.18 1.20 1.25 1.31 1.31 1.40 1.45 1.50
1.69 1.63 0.75 0.47 0.44 0.53 0.62 0.58 0.60 0.75 0.77 0.67 0.43 0.39 0.44 0.39 0.34 0.31 0.28 0.26 0.27 0.32 0.33 0.32 0.33 0.37 0.43 0.48 0.51 0.48 0.51 0.59 0.70 0.86 0.99 1.07 1.14 1.26 1.34 1.39 1.43 1.44 1.53 1.59
1.55 1.49 0.76 0.45 0.31 0.37 0.46 0.40 0.42 0.44 0.41 0.44 0.37 0.43 0.45 0.39 0.32 0.30 0.30 0.29 0.30 0.35 0.35 0.35 0.37 0.40 0.45 0.46 0.48 0.45 0.46 0.54 0.64 0.80 0.88 0.97 1.12 1.24 1.39 1.42 1.50 1.54 1.56 1.60
1.35 1.30 1.13 0.76 0.37 0.55 0.70 0.48 0.42 0.41 0.39 0.39 0.46 0.50 0.44 0.39 0.36 0.35 0.33 0.33 0.33 0.34 0.34 0.34 0.38 0.43 0.47 0.48 0.46 0.44 0.45 0.50 0.56 0.69 0.80 0.88 1.04 1.15 1.26 1.31 1.34 1.40 1.35 1.32
1.08 1.19 1.45 1.08 0.80 1.12 0.64 0.36 0.35 0.37 0.40 0.39 0.42 0.44 0.43 0.44 0.42 0.38 0.36 0.36 0.36 0.35 0.34 0.33 0.35 0.39 0.42 0.45 0.48 0.47 0.45 0.49 0.56 0.63 0.74 0.77 0.91 1.05 1.10 1.17 1.21 1.23 1.18 1.16
0.67 1.12 1.65 1.40 1.08 0.67 0.34 0.27 0.37 0.44 0.51 0.41 0.37 0.36 0.36 0.37 0.39 0.43 0.40 0.35 0.36 0.34 0.33 0.32 0.33 0.35 0.36 0.40 0.45 0.46 0.48 0.49 0.53 0.60 0.68 0.71 0.80 0.97 0.99 1.06 1.14 1.12 1.14 1.14
0.67 1.09 1.74 1.51 1.15 0.63 0.35 0.21 0.25 0.39 0.60 0.39 0.33 0.36 0.38 0.37 0.55 0.56 0.48 0.41 0.38 0.33 0.30 0.31 0.33 0.32 0.34 0.36 0.38 0.40 0.43 0.45 0.50 0.57 0.64 0.68 0.72 0.85 0.86 0.90 0.97 1.00 1.01 1.05
1.02 1.47 1.65 1.24 0.97 0.48 0.29 0.22 0.25 0.64 0.76 0.38 0.33 0.36 0.37 0.44 0.55 0.52 0.46 0.42 0.39 0.37 0.35 0.33 0.34 0.35 0.36 0.37 0.39 0.42 0.41 0.41 0.46 0.51 0.56 0.63 0.70 0.77 0.78 0.81 0.85 0.92 0.95 0.99
0.71 0.98 0.99 0.92 1.01 0.58 0.28 0.30 0.53 0.65 0.39 0.32 0.32 0.32 0.34 0.34 0.32 0.34 0.37 0.38 0.37 0.39 0.39 0.37 0.37 0.38 0.38 0.39 0.40 0.39 0.42 0.41 0.42 0.49 0.55 0.60 0.67 0.71 0.74 0.78 0.84 0.86 0.94 1.05
0.50 0.64 0.70 0.69 0.64 0.46 0.35 0.41 0.44 0.35 0.30 0.27 0.30 0.31 0.31 0.32 0.30 0.32 0.33 0.34 0.34 0.36 0.38 0.37 0.39 0.42 0.42 0.42 0.41 0.39 0.40 0.41 0.43 0.48 0.53 0.61 0.66 0.66 0.74 0.80 0.86 0.91 0.98 1.07
0.40 0.37 0.46 0.44 0.35 0.30 0.30 0.30 0.30 0.28 0.26 0.25 0.26 0.30 0.29 0.30 0.29 0.30 0.29 0.31 0.33 0.33 0.33 0.33 0.36 0.41 0.44 0.44 0.44 0.42 0.42 0.43 0.45 0.49 0.51 0.57 0.67 0.70 0.72 0.78 0.85 0.89 0.93 1.07
0.35 0.35 0.42 0.39 0.28 0.24 0.23 0.23 0.25 0.26 0.22 0.20 0.21 0.24 0.25 0.26 0.26 0.27 0.29 0.31 0.32 0.33 0.32 0.31 0.34 0.38 0.43 0.44 0.44 0.44 0.47 0.50 0.51 0.50 0.50 0.55 0.65 0.70 0.70 0.75 0.81 0.86 0.88 1.08
0.27 0.32 0.40 0.37 0.25 0.27 0.24 0.20 0.19 0.22 0.21 0.19 0.21 0.24 0.23 0.23 0.26 0.26 0.27 0.29 0.29 0.30 0.31 0.31 0.31 0.34 0.38 0.40 0.42 0.45 0.50 0.55 0.57 0.55 0.55 0.58 0.66 0.68 0.69 0.73 0.79 0.88 0.90 0.96